DW1774 Weather Reports


time (UTC)temp
F
wind
direction
speed
knots
gust
knots
rain 1hr
in
rain 24hr
in
rain mn
in
humidity
%
barometer
mb
20260831092403 79 146 0.0 0.0 0.00 0.00 0.00 88 1014.4
20260831091904 79 146 0.0 0.0 0.00 0.00 0.00 88 1014.2
20260831091404 79 146 0.0 0.0 0.00 0.00 0.00 88 1014.2
20260831090903 79 146 0.0 0.0 0.00 0.00 0.00 88 1014.2
20260831090403 79 146 0.0 0.0 0.00 0.00 0.00 88 1014.2
20260831085903 79 146 0.0 0.0 0.00 0.00 0.00 88 1014.2
20260831085404 79 146 0.0 0.0 0.00 0.00 0.00 88 1014.2
20260831084904 79 146 0.0 0.0 0.00 0.00 0.00 88 1014.3
20260831084404 79 146 0.0 0.0 0.00 0.00 0.00 88 1014.3
20260831083904 79 146 0.0 0.0 0.00 0.00 0.00 87 1014.4
20260831083404 80 146 0.0 0.0 0.00 0.00 0.00 87 1014.3
20260831082904 80 146 0.0 0.0 0.00 0.00 0.00 87 1014.3
20260831082404 80 146 0.0 0.0 0.00 0.00 0.00 87 1014.4
20260831081903 80 146 0.0 0.0 0.00 0.00 0.00 86 1014.5
20260831081404 80 146 0.0 0.0 0.00 0.00 0.00 86 1014.5
20260831080903 80 146 0.0 0.0 0.00 0.00 0.00 86 1014.5
20260831080404 80 146 0.0 0.0 0.00 0.00 0.00 86 1014.7
20260831075904 80 146 0.0 0.0 0.00 0.00 0.00 86 1014.7
20260831075404 80 146 0.0 0.0 0.00 0.00 0.00 86 1014.7
20260831074904 80 146 0.0 0.0 0.00 0.00 0.00 86 1014.6
20260831073904 80 146 0.0 0.0 0.00 0.00 0.00 86 1014.6
20260831073403 80 146 0.0 0.0 0.00 0.00 0.00 86 1014.6
20260831072404 81 146 0.0 0.9 0.00 0.00 0.00 86 1014.6
20260831071904 81 146 0.0 0.9 0.00 0.00 0.00 86 1014.6
20260831071404 81 146 0.0 1.7 0.00 0.00 0.00 85 1014.7
20260831070904 81 146 0.9 1.7 0.00 0.00 0.00 85 1014.7
20260831070403 81 146 0.0 0.9 0.00 0.00 0.00 85 1014.8
20260831065904 81 146 0.0 0.9 0.00 0.00 0.00 85 1014.7
20260831065403 81 146 0.0 0.9 0.00 0.00 0.00 85 1014.7
20260831064904 81 146 0.0 0.0 0.00 0.00 0.00 85 1014.7
20260831064404 81 146 0.0 0.9 0.00 0.00 0.00 85 1014.7
20260831063904 81 146 0.0 0.9 0.00 0.00 0.00 85 1014.8
20260831063404 81 146 0.9 0.9 0.00 0.00 0.00 84 1014.8
20260831062904 81 146 0.0 0.9 0.00 0.00 0.00 84 1014.9
20260831061904 81 146 0.9 1.7 0.00 0.00 0.00 84 1014.9
20260831061404 82 146 0.9 1.7 0.00 0.00 0.00 84 1014.9
20260831060403 82 145 0.0 0.9 0.00 0.00 0.00 83 1014.9
20260831055905 82 145 0.0 0.0 0.00 0.00 0.00 83 1014.9
20260831054904 82 145 0.9 1.7 0.00 0.00 0.00 83 1014.9
20260831054404 82 145 0.0 1.7 0.00 0.00 0.00 83 1014.9
20260831053904 82 142 0.0 4.3 0.00 0.00 0.00 83 1014.8
20260831053404 82 142 0.9 4.3 0.00 0.00 0.00 83 1014.8
20260831052904 82 172 3.5 4.3 0.00 0.00 0.00 83 1014.8
20260831052404 82 173 4.3 4.3 0.00 0.00 0.00 82 1014.7
20260831051904 82 173 1.7 4.3 0.00 0.00 0.00 82 1014.8
20260831051404 82 153 0.0 0.9 0.00 0.00 0.00 82 1014.7
20260831050904 82 153 0.0 1.7 0.00 0.00 0.00 82 1014.6
20260831050403 82 153 0.0 1.7 0.00 0.00 0.00 81 1014.7
20260831045904 82 153 0.0 1.7 0.00 0.00 0.00 81 1014.6
20260831045404 82 153 0.9 1.7 0.00 0.00 0.00 81 1014.6
20260831044904 82 153 0.0 0.9 0.00 0.00 0.00 80 1014.6
20260831044404 82 153 0.0 0.0 0.00 0.00 0.00 80 1014.7
20260831043905 82 153 0.0 1.7 0.00 0.00 0.00 80 1014.7
20260831043404 82 153 0.0 1.7 0.00 0.00 0.00 80 1014.6
20260831042904 83 150 0.0 1.7 0.00 0.00 0.00 79 1014.6
20260831042405 83 149 0.0 1.7 0.00 0.00 0.00 79 1014.6
20260831041904 83 149 0.0 1.7 0.00 0.00 0.00 79 1014.6
20260831041404 83 149 0.0 1.7 0.00 0.00 0.00 79 1014.6
20260831040904 83 149 0.0 1.7 0.00 0.00 0.00 79 1014.6
20260831040404 83 148 0.9 1.7 0.00 0.00 0.00 78 1014.5
20260831035904 83 148 0.0 0.9 0.00 0.00 0.00 78 1014.5
20260831034904 83 148 0.0 0.9 0.00 0.00 0.00 78 1014.5
20260831034405 83 148 0.0 0.9 0.00 0.00 0.00 78 1014.4
20260831033903 84 148 0.0 0.9 0.00 0.00 0.00 77 1014.4
20260831033404 84 148 0.0 0.9 0.00 0.00 0.00 77 1014.4
20260831032904 84 148 0.0 0.9 0.00 0.00 0.00 77 1014.4
20260831032404 84 148 0.0 0.9 0.00 0.00 0.00 76 1014.3
20260831031404 84 148 0.0 0.9 0.00 0.00 0.00 76 1014.2
20260831030904 84 148 0.0 1.7 0.00 0.00 0.00 76 1014.2
20260831030405 84 148 0.9 1.7 0.00 0.00 0.00 75 1014.2
20260831025904 85 147 0.9 1.7 0.00 0.00 0.00 75 1014.1
20260831025404 85 146 0.0 0.9 0.00 0.00 0.00 75 1014.0
20260831024405 85 146 0.0 2.6 0.00 0.00 0.00 74 1013.9
20260831022904 85 158 0.9 5.2 0.00 0.00 0.00 73 1013.7
20260831022405 85 158 2.6 5.2 0.00 0.00 0.00 73 1013.7
20260831021904 85 167 0.9 4.3 0.00 0.00 0.00 73 1013.6
20260831021403 86 138 1.7 4.3 0.00 0.00 0.00 72 1013.5
20260831020404 86 153 0.9 1.7 0.00 0.00 0.00 72 1013.5
20260831015904 86 154 0.9 4.3 0.00 0.00 0.00 71 1013.4
20260831015403 86 154 1.7 6.1 0.00 0.00 0.00 71 1013.4
20260831014904 86 150 1.7 6.1 0.00 0.00 0.00 71 1013.4
20260831014404 87 163 0.9 4.3 0.00 0.00 0.00 70 1013.3
20260831013404 87 163 1.7 1.7 0.00 0.00 0.00 69 1013.3
20260831012903 87 163 0.9 5.2 0.00 0.00 0.00 69 1013.2
20260831012404 87 161 1.7 5.2 0.00 0.00 0.00 68 1013.2
20260831011905 87 181 3.5 5.2 0.00 0.00 0.00 67 1013.1
20260831011404 88 152 2.6 5.2 0.00 0.00 0.00 67 1013.2
20260831010904 88 169 1.7 5.2 0.00 0.00 0.00 66 1013.1
20260831010404 88 164 1.7 5.2 0.00 0.00 0.00 66 1012.9
20260831005904 89 142 2.6 5.2 0.00 0.00 0.00 65 1013.1
20260831004904 89 164 2.6 6.1 0.00 0.00 0.00 63 1013.0
20260831004404 89 163 2.6 6.1 0.00 0.00 0.00 62 1013.0
20260831003403 90 153 1.7 5.2 0.00 0.00 0.00 62 1012.9
20260831002904 90 178 1.7 5.2 0.00 0.00 0.00 60 1012.9
20260831002404 91 169 1.7 2.6 0.00 0.00 0.00 59 1013.0
20260831001904 91 190 2.6 6.1 0.00 0.00 0.00 58 1013.0
20260831001403 91 139 2.6 6.1 0.00 0.00 0.00 56 1013.1
20260831000903 91 138 1.7 7.8 0.00 0.00 0.00 57 1013.1
20260831000404 92 165 2.6 7.8 0.00 0.00 0.00 56 1013.2
20260830235905 92 150 2.6 7.0 0.00 0.00 0.00 56 1013.2
20260830235403 92 146 5.2 6.1 0.00 0.00 0.00 56 1013.0
20260830234904 93 130 3.5 7.0 0.00 0.00 0.00 56 1013.0
20260830234404 93 155 2.6 7.0 0.00 0.00 0.00 54 1013.0
20260830233905 94 134 4.3 7.0 0.00 0.00 0.00 54 1013.0
20260830233403 94 146 4.3 7.8 0.00 0.00 0.00 53 1013.0
20260830232403 95 168 2.6 7.8 0.00 0.00 0.00 53 1013.0
20260830231904 96 136 5.2 7.8 0.00 0.00 0.00 52 1013.0
20260830230904 96 140 4.3 10.4 0.00 0.00 0.00 52 1013.0
20260830230405 96 131 6.1 10.4 0.00 0.00 0.00 51 1013.0
20260830225904 96 98 4.3 8.7 0.00 0.00 0.00 52 1013.0
20260830225403 96 148 6.1 8.7 0.00 0.00 0.00 53 1012.9
20260830224903 96 127 2.6 8.7 0.00 0.00 0.00 54 1012.9
20260830224404 97 89 5.2 8.7 0.00 0.00 0.00 53 1012.9
20260830223904 98 149 5.2 8.7 0.00 0.00 0.00 53 1012.8
20260830222904 98 124 2.6 8.7 0.00 0.00 0.00 52 1012.9
20260830222404 99 134 6.1 8.7 0.00 0.00 0.00 52 1012.8
20260830221904 99 133 6.1 11.3 0.00 0.00 0.00 52 1012.8
20260830221404 99 118 5.2 11.3 0.00 0.00 0.00 52 1012.8
20260830220905 98 123 2.6 7.0 0.00 0.00 0.00 53 1012.9
20260830220404 99 85 3.5 8.7 0.00 0.00 0.00 53 1012.8
20260830215904 99 87 2.6 8.7 0.00 0.00 0.00 54 1012.8
20260830215405 99 126 6.1 8.7 0.00 0.00 0.00 53 1012.8
20260830214904 99 88 2.6 12.2 0.00 0.00 0.00 54 1012.9
20260830214403 99 108 6.1 12.2 0.00 0.00 0.00 53 1012.8
20260830213904 99 113 5.2 11.3 0.00 0.00 0.00 54 1012.9
20260830213404 99 127 2.6 7.8 0.00 0.00 0.00 53 1012.9
20260830212904 100 100 6.1 7.8 0.00 0.00 0.00 52 1013.0
20260830212405 100 181 2.6 7.8 0.00 0.00 0.00 52 1013.1
20260830211405 100 89 6.1 7.8 0.00 0.00 0.00 52 1013.2
20260830210904 100 135 4.3 8.7 0.00 0.00 0.00 52 1013.2
20260830210404 99 98 5.2 11.3 0.00 0.00 0.00 52 1013.3
20260830205904 100 108 5.2 11.3 0.00 0.00 0.00 51 1013.4
20260830205404 101 119 6.1 11.3 0.00 0.00 0.00 51 1013.5
20260830204904 101 128 3.5 11.3 0.00 0.00 0.00 51 1013.6
20260830204404 100 134 4.3 11.3 0.00 0.00 0.00 51 1013.6
20260830203903 100 71 2.6 8.7 0.00 0.00 0.00 51 1013.6
20260830203404 101 52 3.5 7.8 0.00 0.00 0.00 51 1013.7
20260830202904 101 104 5.2 11.3 0.00 0.00 0.00 50 1013.8
20260830202404 101 149 6.1 11.3 0.00 0.00 0.00 50 1013.9
20260830201904 101 143 2.6 7.8 0.00 0.00 0.00 50 1014.0
20260830200904 101 133 5.2 10.4 0.00 0.00 0.00 52 1014.0
20260830200404 101 163 6.1 11.3 0.00 0.00 0.00 51 1014.1
20260830195903 101 90 5.2 11.3 0.00 0.00 0.00 51 1014.1
20260830195404 102 119 4.3 7.8 0.00 0.00 0.00 51 1014.1
20260830194904 103 117 5.2 8.7 0.00 0.00 0.00 50 1014.2
20260830194405 103 171 2.6 8.7 0.00 0.00 0.00 50 1014.3
20260830193903 103 153 2.6 7.0 0.00 0.00 0.00 49 1014.3
20260830193405 102 159 3.5 7.8 0.00 0.00 0.00 47 1014.5
20260830192904 102 171 4.3 8.7 0.00 0.00 0.00 48 1014.6
20260830192405 102 163 2.6 8.7 0.00 0.00 0.00 49 1014.6
20260830191904 102 158 8.7 8.7 0.00 0.00 0.00 48 1014.7
20260830191403 102 121 8.7 8.7 0.00 0.00 0.00 48 1014.8
20260830190404 103 115 4.3 8.7 0.00 0.00 0.00 47 1015.1
20260830185904 103 126 3.5 8.7 0.00 0.00 0.00 48 1015.0
20260830185404 103 108 2.6 7.0 0.00 0.00 0.00 46 1015.0
20260830184903 103 187 2.6 5.2 0.00 0.00 0.00 46 1015.1
20260830184404 103 187 1.7 7.0 0.00 0.00 0.00 45 1015.1
20260830183904 103 148 1.7 7.8 0.00 0.00 0.00 47 1015.2
20260830182904 102 157 7.8 7.8 0.00 0.00 0.00 46 1015.3
20260830182403 101 181 7.8 7.8 0.00 0.00 0.00 48 1015.3
20260830181404 101 142 0.9 4.3 0.00 0.00 0.00 46 1015.6
20260830180905 101 128 1.7 5.2 0.00 0.00 0.00 47 1015.7
20260830180404 101 135 4.3 7.8 0.00 0.00 0.00 47 1015.8
20260830175904 101 154 3.5 7.8 0.00 0.00 0.00 47 1015.9
20260830174404 100 190 1.7 4.3 0.00 0.00 0.00 48 1016.2
20260830173904 100 142 0.9 4.3 0.00 0.00 0.00 50 1016.2
20260830171905 99 147 0.0 2.6 0.00 0.00 0.00 52 1016.4
20260830171403 99 147 0.9 2.6 0.00 0.00 0.00 52 1016.4
20260830170905 99 179 0.9 6.1 0.00 0.00 0.00 52 1016.4
20260830170403 98 181 0.9 7.0 0.00 0.00 0.00 54 1016.4
20260830165904 98 165 2.6 7.0 0.00 0.00 0.00 54 1016.5
20260830164904 97 215 6.1 6.1 0.00 0.00 0.00 53 1016.5
20260830164403 97 172 1.7 4.3 0.00 0.00 0.00 55 1016.5
20260830163905 97 227 1.7 4.3 0.00 0.00 0.00 56 1016.5
20260830163404 97 131 0.0 5.2 0.00 0.00 0.00 58 1016.5
20260830162904 96 131 0.9 5.2 0.00 0.00 0.00 57 1016.5
20260830162405 96 131 4.3 4.3 0.00 0.00 0.00 60 1016.6
20260830161904 96 98 0.9 1.7 0.00 0.00 0.00 60 1016.6
20260830161403 96 97 0.9 1.7 0.00 0.00 0.00 59 1016.7
20260830160904 95 134 0.0 1.7 0.00 0.00 0.00 60 1016.7
20260830160404 95 155 0.0 2.6 0.00 0.00 0.00 59 1016.6
20260830155905 95 155 0.9 2.6 0.00 0.00 0.00 62 1016.6
20260830155403 94 155 2.6 2.6 0.00 0.00 0.00 62 1016.6
20260830154403 93 146 0.0 2.6 0.00 0.00 0.00 66 1016.6
20260830153904 92 146 0.0 2.6 0.00 0.00 0.00 67 1016.6
20260830153404 91 145 0.9 2.6 0.00 0.00 0.00 68 1016.6
20260830152404 89 51 0.9 2.6 0.00 0.00 0.00 71 1016.7
20260830151903 89 219 0.0 0.0 0.00 0.00 0.00 72 1016.7
20260830151404 89 219 0.0 0.0 0.00 0.00 0.00 72 1016.7
20260830150904 89 219 0.0 0.0 0.00 0.00 0.00 72 1016.7
20260830145904 90 219 0.0 0.0 0.00 0.00 0.00 72 1016.7
20260830145405 89 219 0.0 0.0 0.00 0.00 0.00 73 1016.7
20260830144904 89 219 0.0 0.0 0.00 0.00 0.00 73 1016.7
20260830144404 89 219 0.0 0.0 0.00 0.00 0.00 74 1016.7
20260830143903 89 219 0.0 0.0 0.00 0.00 0.00 74 1016.7
20260830143404 89 219 0.0 0.0 0.00 0.00 0.00 76 1016.7
20260830142905 88 219 0.0 0.9 0.00 0.00 0.00 77 1016.7
20260830142404 87 219 0.0 2.6 0.00 0.00 0.00 79 1016.6
20260830141905 86 219 0.9 2.6 0.00 0.00 0.00 80 1016.7
20260830141404 85 197 0.0 0.0 0.00 0.00 0.00 83 1016.8
20260830140904 84 197 0.0 0.0 0.00 0.00 0.00 86 1016.7
20260830140404 83 197 0.0 0.0 0.00 0.00 0.00 89 1016.6
20260830135404 81 197 0.0 0.0 0.00 0.00 0.00 94 1016.5
20260830134905 80 197 0.0 0.0 0.00 0.00 0.00 94 1016.5
20260830133903 79 197 0.0 0.9 0.00 0.00 0.00 94 1016.4
20260830133403 79 197 0.0 0.9 0.00 0.00 0.00 94 1016.3
20260830131903 78 196 0.0 0.0 0.00 0.00 0.00 94 1016.2
20260830130904 77 196 0.0 0.0 0.00 0.00 0.00 94 1016.1
20260830130403 77 196 0.0 0.0 0.00 0.00 0.00 94 1016.1
20260830125905 77 196 0.0 0.0 0.00 0.00 0.00 93 1016.0
20260830125404 77 196 0.0 0.0 0.00 0.00 0.00 93 1015.9
20260830124905 76 196 0.0 0.0 0.00 0.00 0.00 93 1015.9
20260830124404 76 196 0.0 0.0 0.00 0.00 0.00 92 1015.9
20260830123903 76 196 0.0 0.0 0.00 0.00 0.00 92 1015.8
20260830123405 76 196 0.0 0.0 0.00 0.00 0.00 92 1015.8
20260830121904 76 196 0.0 0.0 0.00 0.00 0.00 92 1015.7
20260830120904 76 196 0.0 0.0 0.00 0.00 0.00 92 1015.8
20260830120404 76 196 0.0 0.0 0.00 0.00 0.00 92 1015.8
20260830115904 76 196 0.0 0.0 0.00 0.00 0.00 92 1015.8
20260830114905 76 196 0.0 0.0 0.00 0.00 0.00 92 1015.8
20260830114404 76 196 0.0 0.0 0.00 0.00 0.00 91 1015.7
20260830113904 76 196 0.0 0.0 0.00 0.00 0.00 91 1015.7
20260830113404 76 196 0.0 0.0 0.00 0.00 0.00 91 1015.7
20260830112903 77 196 0.0 0.0 0.00 0.00 0.00 91 1015.7
20260830111905 77 196 0.0 0.0 0.00 0.00 0.00 91 1015.5
20260830111404 77 196 0.0 0.0 0.00 0.00 0.00 91 1015.5
20260830105904 77 196 0.0 0.0 0.00 0.00 0.00 91 1015.5
20260830105405 77 196 0.0 0.0 0.00 0.00 0.00 91 1015.4
20260830104404 77 196 0.0 0.0 0.00 0.00 0.00 90 1015.4
20260830103904 77 196 0.0 0.0 0.00 0.00 0.00 90 1015.3
20260830103403 77 196 0.0 0.0 0.00 0.00 0.00 90 1015.3
20260830102904 77 196 0.0 0.0 0.00 0.00 0.00 90 1015.3
20260830101903 77 196 0.0 0.0 0.00 0.00 0.00 90 1015.3
20260830100403 77 196 0.0 0.0 0.00 0.00 0.00 90 1015.2
20260830095404 77 196 0.0 0.0 0.00 0.00 0.00 89 1015.2
20260830094904 77 196 0.0 0.0 0.00 0.00 0.00 89 1015.2
20260830094403 78 196 0.0 0.0 0.00 0.00 0.00 89 1015.2
20260830093904 78 196 0.0 0.0 0.00 0.00 0.00 89 1015.2
20260830093404 78 196 0.0 0.0 0.00 0.00 0.00 89 1015.1